Regional Weather Roundup
Issued by NWS Midland/Odessa, TX

Skip options and go directly to product.
Home | Oldest Version | Previous Version | Current Version | All | Text Only | Save Text | Print | Product List | Glossary On

Skip product version selection by date and time.   
257
ASUS44 KMAF 250110
RWRMAF
MIDLAND AREA WEATHER ROUNDUP
NATIONAL WEATHER SERVICE MIDLAND TX
800 PM CDT FRI JUN 24 2016

...IN SOUTHWEST TEXAS AND SOUTHEAST NEW MEXICO...

CITY           SKY/WX    TMP DP  RH WIND       PRES   REMARKS
ALPINE         SUNNY     86  48  27 SE13      30.08R
ANDREWS        FAIR      90  54  30 SE17      29.97S
ARTESIA        SUNNY     95  50  21 S15       29.93S
BIG SPRING     CLEAR     88  57  34 SE10      29.98S
CARLSBAD       SUNNY     95  48  20 SE17      29.91S
DRYDEN           N/A     89  64  43 E23G31    29.90S
FORT STOCKTON  SUNNY     88  57  34 SE18G24   29.94F
GUAD PASS      SUNNY     86  43  22 E16         N/A
HOBBS          SUNNY     90  48  24 SE17      29.99S
MARFA          SUNNY    N/A N/A N/A SE15      30.05R
MIDLAND AIRPK  SUNNY     91  55  29 SE12G21   29.96S
MIDLAND INTL   SUNNY     91  55  29 S16       29.96S
ODESSA         SUNNY     90  54  29 SE16      29.97S
PECOS          SUNNY     94  50  22 E18G28    29.89S
PRESIDIO       FAIR      97  44  16 NE16      29.86S
SEMINOLE       SUNNY     90  50  25 SE14      29.98S
SNYDER           N/A     88  62  41 SE8       29.97S
WINK           SUNNY     91  52  26 SE18      29.91S
$$
...OTHER STATIONS IN TEXAS...

CITY           SKY/WX    TMP DP  RH WIND       PRES   REMARKS
ABILENE        CLEAR     88  62  41 S12       29.96S
AMARILLO       SUNNY     89  56  32 S20G29    29.98R
AUSTIN         MOCLDY    86  72  62 SE9       29.96S
BROWNSVILLE    PTCLDY    85  76  74 SE15      29.95S
CORPUS CHRISTI MOCLDY    86  76  71 SE16      29.96R
DALLAS FTW     PTCLDY    90  65  43 S15       29.95S
DEL RIO        CLEAR     93  63  36 E10G25    29.87S
EL PASO        MOSUNNY   98  42  14 CALM      29.90S
HOUSTON INT    MOCLDY    83  76  79 SE7       29.98F
LUBBOCK        MOSUNNY   89  55  31 SE16G24   29.98R
SAN ANGELO     CLEAR     89  58  34 SE14      29.94S
SAN ANTONIO    PTCLDY    87  70  56 SE16      29.96S
WACO           PTCLDY    88  67  49 SE13      29.96S
WICHITA FALLS  NOT AVBL
$$
...OTHER LOCATIONS IN NEW MEXICO...

CITY           SKY/WX    TMP DP  RH WIND       PRES   REMARKS
ALAMAGORDO     MOSUNNY   95  46  18 SE10      29.94R
ALBUQUERQUE    PTSUNNY   85  46  25 W17G29    30.07R
CANNON AFB     CLOUDY    88  52  29 S16G25    29.99S
CLOVIS         SUNNY     88  52  29 S21G26    30.00R
HOLLOMAN AFB   CLOUDY    96  46  17 S10G16    29.91S
ROSWELL        SUNNY     95  50  21 SW13      29.93F
RUIDOSO          N/A     73  46  38 NE6       30.23S
SANTA FE       RAIN      72  53  51 SW21G28   30.13R
TRUTH OR CONSE CLOUDY    90  40  17 NW8       30.00F
TUCUMCARI      CLOUDY    91  50  24 S18G26    29.92R
$$

USA.gov is the U.S. government's official web portal to all federal, state and local government web resources and services.